sat.trackr.live / text

‹ back to catalog

ONEWEB-0146

NORAD 47292 · 2020-100AL

PAYLOAD ACTIVE UNKNOWN

§ Identity

Operator
Country
UK
Launch date
2020-12-18
Launch site
VOSTO
Launch vehicle
Mass (kg)
RCS (m²)

Purposes: comms

External: N2YO · Heavens-Above · Gunter

§ Orbital elements

Epoch: 2026-09-19T04:21:51.391584Z

Period
109.72 min
Inclination
87.8982°
Eccentricity
0.0002205
Mean motion
13.12443104 rev/d
Perigee alt
1,212.0 km
Apogee alt
1,215.4 km
Semi-major
7,591.9 km
B*
1.0398e-3
RAAN
332.0044°
Arg perigee
96.6326°
Mean anomaly
263.5053°
Rev number
27,700

§ Raw data

ONEWEB-01461 47292U 20100AL  26262.18184481  .00000387  00000+0  10398-2 0  99902 47292  87.8982 332.0044 0002205  96.6326 263.5053 13.12443104277008

JSON: /api/v1/satellites/47292 · /tle

For live sub-satellite position, see the globe view (requires WebGL).

§ Visibility from observer

Set your observer location to see the next 7 days of passes ≥ 10°. The values pass through the URL so the page stays shareable.

No JS? Fill the form by hand. The geolocation button needs JavaScript.